Location: Temecula
(33.4977°N, 117.1073°W)
Time: 17:34:45
(UTC-08:00)

ISS - Visible Passes

Search period start: 18 December 2018 00:00
Search period end: 28 December 2018 00:00
Orbit: 401 x 408 km, 51.6° (Epoch: 19 December)

Date Brightness Start Highest point End Pass type
(mag) Time Alt. Az. Time Alt. Az. Time Alt. Az.
22 Dec -1.4 05:42:44 10° S 05:45:30 26° SE 05:48:17 10° ENE visible
23 Dec -0.5 04:52:04 10° SSE 04:53:28 12° SE 04:54:52 10° E visible
24 Dec -3.8 05:34:09 10° SW 05:37:23 80° SE 05:40:40 10° NE visible
25 Dec -2.0 04:45:48 31° ESE 04:45:48 31° ESE 04:48:13 10° ENE visible
25 Dec -2.3 06:19:16 10° W 06:21:45 19° NW 06:24:14 10° NNE visible
26 Dec -3.1 05:29:36 34° NNW 05:29:36 34° NNW 05:32:25 10° NNE visible
27 Dec -0.7 04:40:15 11° NE 04:40:15 11° NE 04:40:20 10° NE visible
27 Dec -1.5 06:13:37 10° NNW 06:14:01 10° NNW 06:14:23 10° NNW visible
